This is the latest recevied weather packets stored in our database for station/object JA0ZJX-13. If no packets are shown the sender has not sent any weather packets the latest 1 day(s).
| Time | Temp. | Humidity | Pressure | Rain* | Wind** | Luminosity | Snow |
|---|---|---|---|---|---|---|---|
| 1778063608 | 17.22° C | 69% | 1018.2 hPa | 0 mm | - | 0 W/m² | - |
| 1778062409 | 17.78° C | 68% | 1018.1 hPa | 0 mm | - | 0 W/m² | - |
| 1778061818 | 17.78° C | 68% | 1017.8 hPa | 0 mm | - | 0 W/m² | - |
| 1778061207 | 17.78° C | 68% | 1017.9 hPa | 0 mm | - | 0 W/m² | - |
| 1778060620 | 17.78° C | 68% | 1017.8 hPa | 0 mm | - | 7 W/m² | - |
| 1778060010 | 17.78° C | 68% | 1018 hPa | 0 mm | - | 12 W/m² | - |
| 1778058222 | 18.33° C | 66% | 1017.3 hPa | 0 mm | - | 70 W/m² | - |
| 1778057610 | 18.33° C | 66% | 1017.6 hPa | 0 mm | - | 83 W/m² | - |
| 1778056407 | 18.89° C | 64% | 1017.4 hPa | 0 mm | - | 107 W/m² | - |
| 1778055820 | 18.89° C | 63% | 1017.3 hPa | 0 mm | - | 113 W/m² | - |
| 1778055210 | 19.44° C | 62% | 1017.9 hPa | 0 mm | - | 105 W/m² | - |
| 1778054618 | 20° C | 60% | 1017.6 hPa | 0 mm | - | 186 W/m² | - |
| 1778053419 | 20° C | 60% | 1017.4 hPa | 0 mm | - | 281 W/m² | - |
| 1778052808 | 20.56° C | 60% | 1017.5 hPa | 0 mm | - | 172 W/m² | - |
| 1778050408 | 21.11° C | 59% | 1017.3 hPa | 0 mm | - | 555 W/m² | - |
| 1778049817 | 20.56° C | 60% | 1017.3 hPa | 0 mm | - | 144 W/m² | - |
| 1778049211 | 20.56° C | 59% | 1017.5 hPa | 0 mm | - | 448 W/m² | - |
| 1778048619 | 20° C | 60% | 1017.7 hPa | 0 mm | - | 548 W/m² | - |
| 1778048007 | 20.56° C | 59% | 1017.8 hPa | 0 mm | - | 327 W/m² | - |
| 1778046807 | 20° C | 60% | 1017.8 hPa | 0 mm | - | 339 W/m² | - |
| 1778046216 | 20° C | 58% | 1018 hPa | 0 mm | - | 439 W/m² | - |
| 1778045606 | 20° C | 59% | 1017.9 hPa | 0 mm | - | 557 W/m² | - |
| 1778045019 | 20° C | 60% | 1018.3 hPa | 0 mm | - | 478 W/m² | - |
| 1778044407 | 20° C | 59% | 1018.2 hPa | 0 mm | - | 554 W/m² | - |
| 1778042620 | 20° C | 60% | 1018.5 hPa | 0 mm | - | 761 W/m² | - |
* Rain latest hour (hover to see other rain measurements)
** Current wind speed in m/s (hover to see current wind gust speed)